Theta_e
283 283 284 284 284 285 285 285 286 286 285 285 285 285 286 287 287 287 287 287 287 287 286 286 287 287 288 288 287 287 287 288 288 288 288 289 289 289 289 289 288 289 289 288 288 288 288 287 288 288 288 287 288 287 288 287 286 287 286 287 287 287
283 282 282 282 283 284 285 284 285 284 286 285 285 285 286 286 287 287 286 286 285 285 285 285 286 286 286 287 286 286 286 287 287 288 287 288 288 288 288 287 287 287 287 287 288 287 287 287 287 287 288 288 288 288 288 287 286 286 286 286 286 287
283 283 283 284 284 284 284 285 285 285 285 285 285 285 285 285 285 285 286 286 285 284 283 284 284 285 286 285 286 285 285 285 286 286 286 286 286 286 286 286 286 287 287 287 287 287 287 286 287 287 287 287 287 287 287 286 286 286 286 286 286 286
284 284 284 284 284 285 284 284 285 285 285 284 284 284 284 284 284 284 285 285 286 284 284 283 283 283 283 283 283 284 284 284 285 285 285 285 285 284 285 285 285 286 286 286 286 286 286 286 286 286 286 287 287 286 287 287 286 286 286 285 285 286
283 283 283 284 284 285 284 284 284 284 284 284 284 284 283 284 284 284 284 284 284 284 284 284 283 282 282 282 282 283 283 283 284 285 284 285 285 285 284 284 285 285 286 286 286 286 286 286 286 286 285 286 286 286 286 287 286 286 286 285 285 285
283 283 284 285 285 285 284 284 284 284 284 283 283 283 283 283 284 284 283 283 283 283 283 283 283 283 282 281 281 281 282 283 283 284 284 284 284 284 285 285 285 285 285 285 286 285 285 285 285 286 286 286 286 286 286 286 286 286 286 286 286 285
283 283 284 284 283 283 283 283 283 282 283 283 283 283 283 284 283 284 283 283 282 282 282 282 282 281 281 281 281 281 281 282 282 283 283 283 283 284 284 284 284 284 285 285 285 285 285 285 285 285 285 285 285 285 286 286 285 285 285 285 286 286
283 283 283 283 283 283 283 282 282 282 282 281 282 282 282 282 283 282 282 282 282 282 282 282 282 282 281 281 281 281 281 282 281 281 282 282 282 282 283 283 283 283 284 284 284 284 285 285 285 285 284 284 284 284 285 285 285 286 285 285 285 285
282 282 283 283 282 282 282 282 282 281 281 281 281 282 282 281 282 281 281 280 280 280 280 280 280 281 281 281 281 281 281 281 281 281 281 281 281 282 282 282 282 283 283 283 283 284 284 285 285 285 285 285 285 285 284 284 285 285 285 285 285 284
281 281 280 281 281 281 281 281 281 281 281 281 281 281 281 282 281 281 280 280 279 279 280 280 280 281 281 281 281 280 280 281 280 281 281 281 281 281 281 281 282 282 282 283 283 283 283 283 284 284 285 285 285 284 284 284 284 284 284 285 285 285
279 280 280 280 280 280 280 280 279 280 279 280 280 280 280 280 281 280 279 279 279 279 279 280 279 280 280 280 280 280 281 281 281 281 281 280 280 281 281 281 281 281 281 281 282 282 283 283 284 284 284 284 284 284 284 284 284 284 284 284 284 285
280 280 280 280 280 280 280 280 280 280 280 280 280 280 280 280 280 280 279 279 279 279 279 279 279 280 280 280 280 280 280 280 281 281 281 281 281 281 281 281 281 280 280 280 280 281 282 282 283 285 287 288 286 285 285 285 284 284 284 284 284 284
280 280 279 279 279 280 281 281 281 280 279 279 279 279 280 280 279 279 278 279 279 279 279 280 280 280 279 280 279 279 280 280 280 280 280 280 280 280 280 280 280 280 280 280 280 280 281 281 282 285 288 289 289 286 284 283 283 283 283 283 283 283
280 280 280 279 280 280 280 280 281 280 280 280 280 280 280 280 279 279 279 279 279 279 280 280 280 280 280 280 280 280 280 280 279 279 279 279 279 279 279 279 279 280 280 280 280 280 281 281 284 286 287 288 288 288 285 283 283 283 282 283 283 283
278 279 280 280 281 281 281 281 281 281 280 280 279 280 279 279 279 279 280 280 279 280 280 280 280 280 280 280 280 280 280 280 280 279 279 279 279 279 278 278 279 279 279 280 280 280 280 280 284 286 287 287 287 287 287 284 283 282 282 282 282 283
279 279 280 280 280 280 280 280 280 279 279 279 278 278 278 278 278 279 279 279 279 279 279 280 279 279 280 280 280 280 280 279 279 279 279 279 279 278 278 278 278 278 278 278 279 279 280 280 283 285 286 286 286 287 286 284 283 282 282 282 282 283
278 279 279 279 279 279 279 279 278 278 278 278 277 277 277 277 277 277 277 277 278 278 278 278 278 278 278 278 279 279 279 279 278 278 279 279 278 278 278 278 277 277 278 278 278 278 278 279 283 284 285 286 286 286 286 284 283 283 283 283 282 282
278 277 278 279 278 277 277 276 276 276 276 276 275 275 275 275 275 275 275 275 276 276 276 276 275 275 275 275 276 275 275 276 276 276 277 277 277 278 278 277 277 277 276 277 277 277 277 278 282 283 284 284 285 286 284 283 282 282 282 282 282 282
277 277 277 276 275 275 274 275 274 274 274 273 274 273 272 272 272 272 273 273 273 274 273 273 272 272 272 273 273 272 273 273 273 274 275 274 274 275 275 275 275 276 276 276 276 276 276 277 280 282 283 283 284 284 282 281 281 281 281 281 281 282
276 276 275 274 274 273 273 272 272 272 271 271 271 270 270 270 270 271 271 271 271 271 271 270 270 270 270 270 270 270 270 271 270 271 272 271 271 271 272 273 273 274 275 275 275 275 275 275 278 281 281 282 283 283 281 280 280 279 280 279 280 281
275 274 274 273 272 271 271 271 270 269 268 268 268 268 267 268 269 269 269 269 269 268 268 268 267 267 267 267 266 266 266 266 266 268 268 268 269 270 271 272 272 272 273 273 274 276 275 275 277 280 280 281 282 280 278 278 278 278 278 279 279 280
273 272 272 271 270 270 269 269 268 267 267 266 267 266 266 267 267 267 267 266 266 266 265 265 265 264 264 263 263 264 264 265 265 265 266 266 267 267 268 269 270 269 270 271 272 272 273 273 273 275 279 279 280 281 278 277 276 276 277 278 278 278
272 271 270 270 269 268 268 267 265 264 265 265 264 264 265 265 265 265 264 264 264 263 263 262 262 262 262 262 262 263 263 263 263 263 263 264 265 265 265 266 266 266 267 268 269 270 271 271 272 273 277 278 279 280 279 275 275 275 276 276 277 277
270 269 269 268 267 267 266 265 263 263 263 263 262 263 264 264 263 263 262 262 261 261 261 261 261 261 261 261 261 260 260 261 262 262 262 262 262 262 262 262 264 264 265 266 267 268 268 270 273 271 274 276 277 278 279 275 274 275 274 274 275 276
268 267 267 266 265 265 265 262 261 261 261 261 262 263 263 262 262 262 261 260 260 260 260 260 260 260 260 260 260 260 259 260 260 260 261 260 260 260 260 261 262 263 263 264 265 266 267 268 269 273 271 274 276 277 277 278 277 279 277 275 275 276
266 265 265 264 264 263 263 261 260 260 260 260 262 262 262 261 261 260 259 259 259 259 259 259 259 259 259 259 259 259 258 258 259 259 260 260 260 260 260 260 261 262 262 262 263 265 266 267 268 270 272 271 274 275 276 277 278 278 276 276 276 277
263 263 262 263 262 262 261 260 259 259 258 260 261 261 260 260 259 259 258 258 258 258 258 258 258 258 258 258 258 258 258 258 258 258 259 259 259 259 259 259 260 260 261 261 262 263 264 266 267 267 269 272 272 274 274 275 276 277 278 275 276 278
261 261 260 261 261 260 260 259 258 257 259 261 260 260 260 259 258 258 257 257 257 257 258 257 257 258 258 258 258 258 258 258 258 258 258 259 259 259 258 258 259 259 260 260 261 262 263 264 265 266 267 268 269 270 272 273 275 275 276 277 275 278
260 259 259 258 260 259 259 258 259 259 260 259 260 260 259 258 258 257 257 257 257 257 257 256 257 257 257 257 258 258 258 258 258 258 258 258 258 258 258 258 259 259 259 259 259 260 261 261 262 263 264 265 265 265 267 268 269 273 275 274 274 276
258 258 258 258 259 259 259 258 258 259 259 259 259 258 258 257 257 257 257 257 257 257 257 256 257 257 256 257 257 257 257 258 258 258 257 257 257 257 257 257 258 258 258 258 259 259 259 260 260 261 262 263 264 264 266 267 268 269 271 272 273 274
257 257 257 258 258 258 258 258 258 258 259 259 259 258 257 257 257 257 256 256 256 256 257 256 256 256 256 256 256 257 257 257 257 257 258 259 259 259 258 258 259 260 260 260 260 260 260 260 261 262 267 266 269 267 267 267 268 269 269 272 275 273
256 256 257 257 258 258 257 257 258 258 259 258 258 258 257 257 256 256 256 256 256 256 256 256 256 256 256 255 255 256 256 260 263 263 261 260 265 268 269 269 264 264 264 264 264 265 263 263 264 269 272 272 273 273 274 274 274 275 273 274 276 275
257 257 256 257 257 257 257 257 257 257 258 258 258 258 257 256 256 256 256 256 256 256 256 256 256 256 256 256 256 256 256 256 258 264 266 266 266 267 269 269 270 270 271 267 265 267 271 272 272 272 272 273 273 273 273 274 274 274 275 275 272 271
256 256 256 257 257 256 256 256 257 257 257 258 257 257 257 256 256 255 256 256 256 256 256 256 256 256 255 255 256 256 255 255 255 256 262 266 266 267 268 268 269 269 270 270 269 267 265 268 270 271 271 272 272 272 273 273 274 274 275 275 276 271
256 256 256 256 256 256 256 256 257 257 257 257 257 257 256 256 256 256 256 256 256 256 256 256 256 256 255 255 255 255 255 255 255 255 255 259 264 266 267 267 268 269 269 269 270 270 269 269 270 271 271 272 272 272 273 273 274 275 275 276 272 270
256 255 255 255 255 256 256 256 257 257 257 257 257 257 256 256 256 256 256 256 256 256 256 256 256 256 256 256 256 256 256 256 256 256 256 256 256 258 262 265 266 267 268 268 269 269 269 270 270 271 271 272 272 273 273 273 271 274 276 274 271 270
255 255 256 256 257 256 256 256 257 257 257 257 256 256 256 256 256 256 256 257 257 256 256 256 256 256 256 256 256 256 256 256 257 257 256 256 256 256 256 257 259 263 266 264 265 268 269 270 270 271 271 272 272 273 273 274 270 269 269 270 270 270
255 255 256 256 256 256 255 255 256 257 257 256 256 256 255 255 255 255 256 256 257 257 256 256 256 256 256 256 256 257 257 257 257 257 257 257 257 257 257 257 258 259 263 267 268 269 269 269 270 270 271 271 272 273 273 268 268 268 269 270 270 270
Wind_Speed
4 4 4 5 4 5 4 5 4 5 5 5 5 5 6 6 6 6 7 8 7 7 8 8 8 8 7 5 7 7 7 8 7 7 7 6 6 6 6 6 6 7 7 6 5 5 5 5 5 5 5 5 6 6 7 6 5 6 7 7 7 7
2 2 2 3 4 4 4 4 4 4 3 4 4 5 5 7 8 8 8 6 6 6 6 6 6 7 7 7 7 8 8 8 7 7 8 8 7 7 8 7 7 7 7 7 6 6 5 5 5 5 5 5 6 6 7 7 6 7 8 8 7 6
3 3 3 3 3 3 3 3 3 3 3 2 3 3 3 4 4 5 4 6 6 7 8 7 7 8 7 8 6 7 6 6 6 6 6 6 8 7 9 8 8 8 8 7 7 6 6 5 6 5 5 5 6 7 6 7 7 8 8 7 9 7
4 5 4 4 4 3 2 2 1 1 1 2 3 4 4 4 5 5 5 4 4 4 4 5 6 7 7 8 7 7 7 8 8 8 7 6 5 5 7 7 7 7 8 7 8 7 6 5 5 5 5 5 6 6 6 6 7 8 8 7 9 8
4 4 3 2 1 0 1 2 2 2 3 2 3 2 3 4 4 4 5 5 5 5 4 4 4 4 4 5 6 8 9 8 8 7 8 9 9 8 6 5 5 6 6 6 7 7 7 7 6 6 5 5 6 7 7 7 7 8 9 9 10 9
1 2 0 0 0 0 1 1 2 2 2 2 2 1 2 3 3 4 4 4 4 5 4 4 4 4 4 4 4 4 5 5 6 6 7 8 7 9 10 9 9 8 6 5 6 6 6 7 7 7 6 6 6 6 7 7 8 8 9 10 10 9
2 2 2 1 1 1 1 2 3 3 3 2 1 1 1 0 1 1 2 3 4 4 4 4 3 4 4 4 3 3 4 4 4 4 6 7 8 8 9 9 8 8 9 10 10 9 7 7 7 7 7 6 5 6 7 7 7 8 9 10 10 10
2 2 1 2 2 2 3 3 2 2 2 2 1 1 2 2 1 1 0 0 0 1 1 2 1 2 3 4 4 4 4 4 4 4 4 4 5 6 7 9 9 8 9 9 9 9 10 9 8 7 7 7 7 6 7 7 7 7 8 8 8 8
2 3 3 3 3 2 2 2 2 2 2 3 3 2 2 3 2 3 3 3 3 3 3 3 3 3 3 3 3 3 3 4 4 4 4 4 4 5 5 6 7 7 8 10 9 9 9 9 9 9 9 9 9 8 7 8 8 8 8 7 8 7
1 1 1 1 1 1 2 2 2 2 3 4 4 4 3 3 2 3 4 4 5 4 5 4 4 4 5 5 5 4 4 4 4 4 5 4 5 5 6 6 7 7 6 8 9 9 9 10 9 9 9 9 9 9 8 8 9 9 9 9 9 8
4 4 4 4 4 4 5 5 5 5 5 4 4 4 5 4 2 4 4 4 5 5 5 5 5 5 5 6 5 6 6 6 6 6 6 5 6 6 6 6 6 7 8 8 9 9 8 8 9 8 8 9 10 8 8 9 9 9 10 10 10 9
4 4 4 4 5 5 5 5 5 5 5 5 5 5 5 4 4 4 5 5 6 5 5 5 5 6 7 7 8 8 7 7 8 8 8 8 7 8 8 7 7 7 7 7 7 8 8 8 7 10 16 14 10 9 8 9 9 9 9 10 10 10
3 3 4 5 5 5 6 6 6 5 4 4 4 4 5 3 4 4 4 5 5 6 7 7 7 7 8 8 7 7 7 9 9 8 8 8 8 10 9 9 10 10 9 10 10 9 8 7 8 14 16 17 19 13 9 9 10 9 10 10 10 11
5 5 5 6 6 6 6 7 7 6 5 5 5 5 6 6 6 6 6 6 6 6 8 8 10 11 12 10 10 10 9 9 9 9 9 9 9 9 8 9 10 11 11 11 11 12 11 10 11 16 17 19 20 17 12 9 9 9 9 10 11 10
4 4 5 5 6 6 6 5 6 6 5 6 5 6 8 8 8 8 8 8 8 9 8 8 8 9 11 11 11 11 11 11 12 12 11 11 10 8 8 10 11 11 11 11 13 13 13 13 12 18 19 20 21 21 17 10 10 10 10 11 11 11
4 4 5 5 6 5 4 5 4 4 4 5 7 9 9 9 9 8 9 9 9 9 9 10 9 10 10 10 10 10 11 12 13 12 10 10 10 10 11 12 13 13 13 13 13 13 12 14 13 20 22 22 23 23 20 11 12 12 12 12 11 11
4 5 5 5 4 4 5 6 6 7 8 8 9 7 8 7 8 9 9 10 9 9 8 9 9 10 10 11 11 11 11 11 11 11 11 10 11 12 13 13 13 14 14 14 14 14 15 15 20 22 23 23 24 25 21 13 12 12 12 12 12 12
4 4 2 3 4 5 6 7 7 8 7 7 6 7 7 8 8 9 9 9 9 10 10 9 10 11 12 13 13 14 14 13 13 14 13 13 12 12 12 13 13 15 16 16 15 15 17 16 23 26 25 26 25 27 16 12 13 13 12 13 13 13
4 2 2 4 5 7 7 7 8 8 8 7 7 8 8 7 8 9 10 10 10 9 10 11 12 14 14 13 14 14 14 14 15 14 12 14 14 14 15 15 15 15 16 17 17 17 17 17 20 26 28 27 29 22 14 13 12 12 13 14 13 13
2 3 5 4 6 7 7 7 8 8 8 8 9 9 10 9 10 10 10 10 9 11 11 12 12 13 14 13 13 14 14 13 13 14 13 14 16 17 17 16 16 16 16 17 18 18 18 18 21 29 30 31 30 24 15 12 12 13 13 14 14 13
4 5 5 5 6 7 8 8 8 8 8 9 10 10 10 10 10 10 11 11 11 11 10 10 11 12 13 14 14 13 15 16 15 15 14 15 15 16 16 15 15 16 16 16 17 19 21 19 20 26 29 30 29 24 16 15 13 15 14 14 15 14
6 6 6 6 7 8 8 6 7 7 8 9 8 8 9 10 10 11 11 11 11 10 10 10 11 13 13 14 15 14 14 12 12 13 14 15 13 13 14 14 14 16 17 17 17 17 18 20 20 21 31 31 31 31 20 14 14 15 16 15 15 15
5 5 6 5 8 8 7 5 7 8 7 8 7 8 8 9 10 10 11 11 11 11 11 10 10 13 14 12 12 12 12 11 12 13 13 14 13 12 14 15 17 16 18 18 18 18 19 17 19 21 31 32 33 34 29 17 17 16 16 16 17 16
4 5 5 5 8 7 5 5 7 7 7 6 7 8 8 9 9 10 10 10 11 11 12 12 12 12 12 13 12 13 13 10 11 12 12 12 12 16 17 17 14 16 16 17 17 17 18 19 26 20 27 33 34 35 36 23 19 20 18 20 19 19
5 5 5 6 7 7 6 5 6 6 6 7 9 8 8 8 9 10 10 11 12 12 13 12 13 13 11 12 12 13 15 13 12 13 12 12 13 14 16 16 14 14 16 16 14 13 15 15 16 27 24 30 33 34 34 36 29 33 24 20 20 20
5 6 6 6 6 5 5 5 7 6 7 9 8 8 8 9 9 10 11 11 12 13 13 12 12 12 11 12 13 13 14 14 13 12 11 11 12 11 14 12 11 13 14 15 14 12 11 12 12 18 27 26 32 32 33 33 34 34 24 20 18 18
7 8 8 6 6 5 5 4 6 8 9 9 7 8 10 10 10 11 12 12 13 13 12 13 12 12 12 12 11 13 13 13 12 12 11 11 12 12 13 12 11 12 13 15 14 14 11 10 11 13 19 28 28 31 32 33 34 33 34 25 20 20
5 7 9 8 5 6 4 4 5 9 10 9 8 9 9 11 12 12 13 13 12 12 13 15 14 12 12 13 11 11 11 12 13 12 12 11 12 12 13 14 13 13 14 14 13 13 12 12 10 11 10 15 21 22 29 33 32 32 32 31 25 33
7 8 8 10 6 4 4 5 5 7 8 9 9 10 10 11 12 13 13 13 13 12 12 13 12 12 12 11 11 10 11 11 11 12 12 12 13 13 13 14 14 14 14 14 14 13 13 13 11 12 11 12 13 16 19 20 20 26 27 18 17 21
6 7 8 9 8 6 6 6 7 7 8 8 9 9 10 11 11 12 13 14 13 12 11 12 14 15 12 11 10 11 11 11 11 12 13 13 13 14 14 14 15 15 15 15 13 13 14 13 11 11 13 14 13 14 14 14 16 14 11 13 14 14
5 6 7 9 7 7 7 7 7 7 9 9 9 9 11 12 12 13 14 13 12 12 11 11 12 11 12 12 11 10 11 12 12 13 14 14 13 13 14 15 15 16 15 14 14 15 15 14 13 12 15 18 23 21 17 14 14 14 15 19 27 22
5 7 8 9 7 7 7 8 8 8 8 9 8 9 11 13 13 12 13 11 12 12 11 11 11 11 11 11 12 12 12 15 23 19 16 15 21 30 32 28 20 18 17 17 15 13 16 14 14 25 32 32 32 33 33 31 31 29 25 29 35 25
5 7 8 8 6 7 8 10 10 9 9 8 9 9 11 12 12 12 12 12 11 12 13 12 12 11 11 11 12 12 12 12 12 22 28 28 28 29 31 31 33 35 33 25 20 19 32 35 36 34 31 32 32 32 32 31 30 31 30 31 24 17
5 6 8 8 8 9 10 10 10 9 9 8 9 9 10 11 11 13 13 12 12 13 13 11 12 12 11 11 11 12 12 12 13 13 19 26 27 28 30 30 32 32 32 33 30 25 18 24 30 32 31 31 31 30 30 30 30 30 30 29 29 19
5 6 7 8 9 10 10 10 11 9 9 9 9 10 11 12 12 14 14 13 13 12 13 12 11 11 11 12 12 12 11 12 12 15 14 15 22 28 29 29 29 30 30 31 31 32 29 28 28 31 30 30 30 30 29 30 31 30 29 30 19 14
6 7 8 8 9 10 10 11 11 10 10 10 10 10 11 12 13 14 13 13 13 13 12 11 10 11 11 11 11 12 12 12 13 14 15 15 14 15 19 23 25 26 28 29 30 30 30 29 30 29 29 29 28 28 28 27 22 28 30 25 16 13
8 8 8 9 9 9 10 11 11 10 9 9 10 10 11 12 14 13 14 20 16 11 11 10 10 11 11 11 12 12 13 13 13 13 14 13 14 15 16 15 16 19 24 22 22 27 31 29 29 28 27 28 27 27 27 27 16 13 12 13 11 11
8 8 8 8 7 8 10 12 11 9 9 9 9 11 12 12 13 12 12 11 12 11 10 10 10 11 11 11 12 12 13 13 12 13 12 13 13 14 14 14 14 14 19 29 28 29 27 27 27 26 27 26 27 27 27 14 10 11 11 11 9 10
Wind_Direction
4 347 356 350 358 1 3 353 353 359 357 0 7 358 354 351 358 360 2 14 19 18 17 17 17 17 19 17 20 9 9 6 2 1 356 347 343 340 335 335 334 333 328 325 307 297 286 281 276 271 271 262 259 253 250 256 250 250 252 251 241 241
300 303 316 320 329 333 327 324 328 335 338 346 355 353 353 359 4 4 5 4 14 12 12 13 17 14 12 7 16 12 10 1 357 354 359 351 345 348 345 341 341 335 332 327 320 307 294 281 271 265 261 264 257 257 258 253 240 243 247 254 248 246
291 295 289 282 286 285 282 278 285 280 304 318 311 339 331 360 352 356 350 355 354 8 6 2 10 9 6 5 7 10 0 357 352 354 352 343 351 353 346 347 343 337 331 324 317 311 305 293 282 271 258 254 256 256 251 255 251 248 247 239 249 248
261 264 269 267 270 282 300 305 284 304 305 313 333 345 349 1 345 353 341 347 350 4 3 354 358 4 359 5 358 0 355 354 352 349 350 353 339 354 343 342 338 334 330 328 319 311 301 297 290 280 267 256 255 255 247 251 249 252 252 245 246 241
226 224 224 236 225 277 350 332 355 344 340 343 322 356 331 358 333 347 337 341 343 336 340 355 351 8 353 7 347 356 349 348 344 347 350 344 341 342 344 333 331 330 330 326 321 317 314 306 299 288 274 261 251 252 252 246 246 248 251 251 250 246
208 188 221 268 281 322 313 316 319 317 297 289 315 331 333 352 341 345 343 343 347 340 347 347 349 5 345 353 332 351 332 336 332 336 344 337 336 338 334 338 335 335 330 323 318 320 315 311 305 303 297 282 268 257 252 249 245 243 244 245 248 247
183 172 184 201 220 223 240 240 241 244 254 260 270 265 257 237 262 318 325 331 343 337 351 335 350 351 339 330 322 324 320 319 317 329 336 334 331 331 331 328 331 329 331 328 325 321 316 309 305 299 291 282 278 273 268 260 251 246 244 243 244 244
184 163 210 201 210 206 216 224 226 237 248 269 255 266 289 282 240 240 242 251 255 283 299 292 301 310 311 308 308 306 306 310 310 309 311 301 303 313 318 316 318 321 317 317 314 315 313 311 308 302 293 288 282 277 272 270 266 262 257 254 249 247
195 207 203 203 212 223 232 236 259 262 263 276 285 277 279 288 304 318 334 325 326 323 306 298 296 287 284 269 256 252 266 278 277 281 283 279 281 287 286 286 291 297 304 307 307 306 304 304 303 303 301 298 294 287 281 275 272 269 269 265 263 258
270 268 258 276 265 286 296 276 272 275 288 293 295 289 276 276 274 297 312 319 326 318 307 301 296 303 300 300 297 290 283 283 274 269 265 266 271 268 270 275 277 275 278 281 287 291 298 299 299 296 294 292 291 290 288 285 282 280 276 270 262 257
276 283 290 289 292 295 288 287 288 288 290 281 290 306 305 293 297 304 309 323 322 313 311 314 316 311 311 305 303 300 299 292 287 285 284 276 271 266 260 261 262 270 270 264 264 269 271 277 280 287 291 293 289 284 283 283 278 275 276 275 271 263
237 244 248 261 260 262 269 269 267 260 253 265 276 288 281 303 304 314 326 326 313 306 307 307 310 310 307 310 303 299 295 293 293 292 289 285 280 282 282 278 274 266 263 264 261 255 255 256 257 262 267 271 273 276 277 276 272 268 267 269 271 267
269 262 269 264 261 255 254 258 260 264 267 259 263 265 271 301 316 318 320 310 306 315 318 321 312 309 306 295 294 294 296 293 291 285 281 281 284 285 287 287 287 287 285 282 279 270 254 247 247 251 253 258 266 270 267 267 272 274 271 270 269 272
2 353 338 328 326 330 335 335 333 337 327 324 339 339 356 7 353 344 326 316 315 313 314 311 311 311 308 308 304 301 297 294 291 288 286 286 286 281 277 278 278 282 285 285 283 280 276 271 259 257 256 259 261 261 260 257 261 263 267 267 267 267
354 8 29 30 21 11 354 357 357 358 7 23 0 7 3 350 341 329 322 315 312 307 304 302 301 299 299 300 300 300 300 297 295 293 293 290 287 287 284 281 282 281 278 274 275 274 273 273 266 266 268 271 271 269 266 259 255 256 257 260 261 263
22 32 34 22 7 0 343 354 1 359 10 7 2 358 347 343 334 327 319 316 312 310 308 306 302 297 296 297 299 299 296 295 291 291 290 291 292 289 287 287 287 288 287 285 281 277 272 269 261 264 265 266 267 269 270 262 262 261 256 252 249 252
46 32 16 9 352 340 351 352 4 5 4 4 357 347 342 338 328 322 316 311 309 311 313 313 312 311 312 312 312 310 305 302 303 302 303 301 298 294 290 289 289 286 285 286 285 285 284 280 274 270 267 264 265 267 267 261 260 261 260 256 252 250
60 27 353 342 2 353 13 16 7 8 352 354 349 345 342 329 319 314 317 316 318 319 320 326 326 322 320 317 315 312 309 308 306 305 305 303 299 294 292 289 286 286 285 283 282 281 279 277 279 281 280 277 275 272 265 259 255 256 256 255 255 252
47 3 18 16 27 31 26 10 5 356 344 344 342 337 325 323 318 316 317 314 315 322 331 330 324 317 312 311 311 308 307 306 305 304 306 301 297 293 289 286 284 284 282 281 279 276 274 275 274 274 276 278 279 277 267 261 257 255 254 255 254 252
44 32 56 32 52 41 16 7 -0 354 345 339 336 332 324 322 315 316 316 316 326 327 328 326 321 316 314 313 310 309 309 309 306 303 305 299 297 291 287 285 283 279 275 274 274 272 275 274 272 273 274 274 273 273 274 270 266 260 259 261 258 257
72 58 45 46 44 23 15 5 5 353 338 333 329 323 318 315 316 324 325 324 326 327 326 324 319 314 312 311 308 309 306 304 301 300 300 294 291 287 288 285 283 281 278 274 273 273 272 272 272 272 274 275 276 277 276 274 270 268 262 261 261 260
49 38 39 38 33 17 9 4 358 340 326 322 319 315 312 316 326 326 322 322 322 322 319 319 317 311 308 304 303 302 297 297 298 296 296 294 293 291 289 288 286 285 283 281 277 274 270 272 272 271 273 274 274 274 274 272 273 269 269 266 265 265
50 45 41 36 23 7 356 358 341 327 320 315 315 310 316 325 325 321 319 318 314 313 312 310 305 302 300 297 296 296 294 295 295 295 293 292 292 291 291 292 292 288 284 282 279 277 275 273 276 277 276 276 275 275 274 273 268 269 268 270 268 263
39 36 31 33 12 356 348 343 331 316 317 315 307 308 320 319 314 313 311 309 307 306 303 301 299 297 296 296 295 292 288 286 286 287 291 291 293 293 290 288 285 285 282 282 279 278 278 277 277 279 279 278 278 277 275 272 269 269 271 269 266 263
20 15 7 0 355 349 341 338 321 317 315 309 304 314 313 310 311 309 308 306 305 304 302 301 299 298 298 295 294 291 291 293 290 286 284 284 284 283 284 284 284 284 284 283 281 282 284 284 283 281 281 281 281 280 278 275 273 270 267 260 257 255
4 345 346 344 347 341 336 328 315 313 311 304 312 312 311 310 310 308 306 305 303 302 301 300 300 298 296 295 294 290 289 290 287 283 283 283 282 283 285 284 286 286 284 286 288 287 285 285 285 287 291 292 290 289 287 286 283 279 273 269 268 267
348 334 330 340 337 328 319 318 313 309 305 304 316 311 312 311 311 310 306 305 304 303 303 301 300 298 295 293 291 292 291 288 287 287 284 281 282 281 282 283 286 284 286 287 287 289 287 285 284 282 282 284 287 289 289 287 285 282 279 276 274 268
345 335 320 324 328 315 311 310 312 305 302 312 312 310 310 311 311 307 305 302 302 303 304 302 301 297 296 294 290 286 285 287 289 287 286 283 279 280 282 286 286 284 286 286 290 293 298 301 302 303 311 311 304 299 295 292 289 284 279 274 268 270
332 324 319 310 317 310 310 306 298 291 301 309 308 310 310 308 305 303 303 303 304 303 301 300 302 302 300 296 293 288 286 287 285 284 285 283 284 283 282 283 284 285 283 282 285 283 285 284 283 285 283 286 286 288 291 292 293 293 294 294 281 271
318 311 309 304 307 313 305 301 297 299 303 303 307 308 307 303 303 303 303 303 303 302 302 300 297 296 296 294 292 294 291 286 285 285 284 285 284 284 283 280 279 280 280 279 277 277 277 274 272 269 274 274 273 273 271 275 280 282 282 288 295 300
306 296 297 298 304 304 303 299 302 306 307 306 307 306 304 303 304 301 299 300 301 299 299 295 293 293 294 294 292 284 284 289 286 280 276 269 264 265 269 270 270 267 265 265 270 276 274 272 270 266 264 268 274 277 276 270 274 281 280 279 284 288
291 302 300 298 303 304 306 307 305 304 302 303 302 304 305 306 305 303 301 302 300 298 298 296 294 294 294 293 294 293 284 275 284 287 287 288 285 286 287 287 287 288 288 286 279 276 282 282 279 283 285 287 289 289 288 287 286 284 285 287 289 289
305 298 298 300 309 311 309 307 305 303 302 301 304 306 305 305 304 302 300 301 298 298 299 298 297 296 293 292 292 290 290 293 285 287 290 290 292 292 292 293 293 294 294 295 296 293 292 293 295 297 296 294 294 292 291 290 288 287 285 286 290 287
302 300 301 308 312 309 306 302 299 300 301 303 305 306 301 301 303 302 300 299 298 299 298 295 295 295 295 294 291 290 292 292 294 291 289 292 294 294 295 295 295 296 296 296 296 297 298 298 298 298 297 295 293 292 290 288 287 286 284 282 279 277
299 299 301 305 305 302 300 298 298 302 304 307 308 305 303 302 302 298 297 297 298 297 297 297 296 294 294 294 294 294 293 294 295 295 298 292 292 294 294 294 295 296 297 297 297 297 297 299 299 298 297 296 294 293 291 289 287 287 285 283 279 274
296 297 298 298 296 296 297 297 299 306 308 309 306 304 302 304 301 297 295 296 296 297 296 296 294 295 294 293 293 291 293 291 291 292 293 299 301 299 296 294 293 294 298 299 299 299 299 299 299 299 299 298 297 295 294 291 289 288 287 283 275 267
295 294 293 293 296 298 298 297 301 305 306 306 304 306 308 306 302 297 290 289 291 292 293 293 292 293 292 292 292 291 291 289 289 288 291 293 296 298 301 305 305 301 300 300 300 299 300 300 301 301 300 299 297 297 297 297 296 290 285 278 267 264
289 290 292 294 294 297 300 298 300 305 305 305 309 311 309 306 300 296 293 295 295 296 294 294 294 291 291 290 288 287 285 286 286 289 287 288 288 291 294 296 296 297 300 302 303 302 303 304 304 304 302 301 300 300 303 303 297 292 286 281 271 263